GW1237 Weather Reports


time (UTC)temp
C
wind
direction
speed
KPH
gust
KPH
rain 1hr
cm
rain 24hr
cm
rain mn
cm
humidity
%
barometer
mb
20260504110438 4 16 0.0 0.0 0.00 0.00 0.00 93 1008.6
20260504100355 3 16 0.0 0.0 0.00 0.00 0.00 95 1008.3
20260504081748 6 15 0.0 0.0 0.00 0.00 0.00 88 1008.7
20260504081245 7 15 0.0 0.0 0.00 0.00 0.00 89 1009.0
20260504080741 7 15 0.0 0.0 0.00 0.00 0.00 86 1008.8
20260504080238 7 15 0.0 1.6 0.00 0.00 0.00 86 1008.9
20260504070205 7 15 0.0 1.6 0.00 0.00 0.00 83 1009.3
20260504060126 8 15 0.0 0.0 0.00 0.00 0.00 78 1009.2
20260504050554 7 15 0.0 1.6 0.00 0.00 0.00 78 1009.1
20260504045548 7 15 1.6 1.6 0.00 0.00 0.00 76 1009.4
20260504045043 7 15 0.0 0.0 0.00 0.00 0.00 77 1009.4
20260504044541 7 15 0.0 0.0 0.00 0.00 0.00 77 1009.4
20260504044037 7 15 0.0 0.0 0.00 0.00 0.00 78 1009.5
20260504043534 7 15 0.0 0.0 0.00 0.00 0.00 79 1009.6
20260504043032 7 15 0.0 0.0 0.00 0.00 0.00 74 1009.7
20260504042529 7 15 0.0 0.0 0.00 0.00 0.00 72 1009.7
20260504042026 7 15 0.0 0.0 0.00 0.00 0.00 71 1009.6
20260504041522 7 15 0.0 0.0 0.00 0.00 0.00 75 1009.7
20260504041018 7 15 0.0 0.0 0.00 0.00 0.00 76 1009.5
20260504040516 7 15 0.0 0.0 0.00 0.00 0.00 77 1009.5
20260504040012 7 15 0.0 0.0 0.00 0.00 0.00 79 1009.3
20260504035509 7 15 0.0 0.0 0.00 0.00 0.00 81 1009.4
20260504035005 6 15 0.0 0.0 0.00 0.00 0.00 75 1009.5
20260504034503 6 15 0.0 0.0 0.00 0.00 0.00 76 1009.4
20260504034000 6 15 0.0 0.0 0.00 0.00 0.00 78 1009.5
20260504033457 7 15 0.0 1.6 0.00 0.00 0.00 85 1009.5
20260504032955 7 15 0.0 0.0 0.00 0.00 0.00 79 1009.3
20260504032451 6 15 0.0 0.0 0.00 0.00 0.00 74 1009.4
20260504031948 6 15 0.0 0.0 0.00 0.00 0.00 84 1009.3
20260504031445 6 15 0.0 0.0 0.00 0.00 0.00 84 1009.3
20260504030942 6 15 1.6 1.6 0.00 0.00 0.00 83 1009.2
20260504030439 6 15 0.0 1.6 0.00 0.00 0.00 79 1009.2
20260504025935 6 15 0.0 0.0 0.00 0.00 0.00 80 1009.4
20260504025432 6 15 0.0 0.0 0.00 0.00 0.00 81 1009.1
20260504024929 6 15 0.0 0.0 0.00 0.00 0.00 78 1009.1
20260504024426 6 15 0.0 0.0 0.00 0.00 0.00 75 1009.2
20260504023923 6 15 0.0 0.0 0.00 0.00 0.00 76 1009.2
20260504023419 6 15 0.0 0.0 0.00 0.00 0.00 71 1009.2
20260504022915 6 15 0.0 0.0 0.00 0.00 0.00 73 1009.3
20260504022411 6 15 0.0 0.0 0.00 0.00 0.00 72 1009.1
20260504021908 7 15 0.0 0.0 0.00 0.00 0.00 72 1009.0
20260504021406 6 15 0.0 0.0 0.00 0.00 0.00 66 1009.2
20260504020903 6 15 0.0 0.0 0.00 0.00 0.00 67 1009.2
20260504020359 7 15 0.0 0.0 0.00 0.00 0.00 70 1009.4
20260504015855 7 15 0.0 0.0 0.00 0.00 0.00 60 1009.2
20260504015351 7 15 0.0 0.0 0.00 0.00 0.00 56 1009.3
20260504014848 6 15 0.0 0.0 0.00 0.00 0.00 58 1009.2
20260504014343 6 15 0.0 0.0 0.00 0.00 0.00 60 1009.3
20260504013841 6 15 0.0 0.0 0.00 0.00 0.00 67 1009.2
20260504013339 6 15 0.0 0.0 0.00 0.00 0.00 65 1009.0
20260504012836 6 15 0.0 1.6 0.00 0.00 0.00 69 1008.9
20260504012334 6 15 0.0 0.0 0.00 0.00 0.00 58 1009.0
20260504011831 6 15 0.0 0.0 0.00 0.00 0.00 58 1008.9
20260504011327 6 15 0.0 0.0 0.00 0.00 0.00 59 1008.9
20260504010823 7 15 0.0 0.0 0.00 0.00 0.00 58 1008.7
20260504010319 7 15 0.0 0.0 0.00 0.00 0.00 54 1008.5
20260504005815 7 15 0.0 0.0 0.00 0.00 0.00 52 1008.7
20260504005313 7 15 0.0 1.6 0.00 0.00 0.00 53 1008.6
20260504004810 7 15 0.0 0.0 0.00 0.00 0.00 56 1008.4
20260504004308 7 15 0.0 0.0 0.00 0.00 0.00 54 1008.5
20260504003804 7 15 0.0 0.0 0.00 0.00 0.00 54 1008.3
20260504003301 8 15 0.0 0.0 0.00 0.00 0.00 53 1008.2
20260504002757 8 15 0.0 0.0 0.00 0.00 0.00 54 1008.4
20260504002254 8 15 0.0 0.0 0.00 0.00 0.00 54 1008.2
20260504001752 8 15 0.0 0.0 0.00 0.00 0.00 56 1007.9
20260504001249 8 15 0.0 0.0 0.00 0.00 0.00 54 1007.9
20260504000746 7 15 1.6 1.6 0.00 0.00 0.00 55 1007.8
20260504000243 7 15 0.0 0.0 0.00 0.00 0.00 57 1007.8
20260503235741 7 15 0.0 0.0 0.00 0.00 0.00 61 1007.7
20260503235237 8 15 0.0 0.0 0.00 0.00 0.00 62 1007.5
20260503234735 8 15 0.0 0.0 0.00 0.00 0.00 60 1007.3
20260503234233 8 15 0.0 0.0 0.00 0.00 0.00 59 1007.3
20260503233730 9 15 1.6 1.6 0.00 0.00 0.00 59 1007.1
20260503233226 10 15 0.0 1.6 0.00 0.00 0.00 60 1007.0
20260503232723 11 15 0.0 0.0 0.00 0.00 0.00 58 1007.0
20260503232220 11 16 0.0 0.0 0.00 0.00 0.00 43 1007.1
20260503231719 11 16 1.6 1.6 0.00 0.00 0.00 44 1006.7
20260503231215 11 15 0.0 0.0 0.00 0.00 0.00 46 1006.9
20260503230711 11 15 0.0 1.6 0.00 0.00 0.00 44 1006.8
20260503230208 11 15 1.6 3.2 0.00 0.00 0.00 43 1006.7
20260503225705 11 16 0.0 1.6 0.00 0.00 0.00 46 1006.8
20260503225200 11 16 6.4 8.0 0.00 0.00 0.00 44 1006.7
20260503224657 11 344 1.6 1.6 0.00 0.00 0.00 41 1006.7
20260503224155 11 345 1.6 1.6 0.00 0.00 0.00 40 1006.6
20260503223653 11 345 3.2 3.2 0.00 0.00 0.00 40 1006.6
20260503223149 11 357 0.0 1.6 0.00 0.00 0.00 41 1006.7
20260503222646 11 341 4.8 4.8 0.00 0.00 0.00 39 1006.6
20260503222144 11 324 0.0 1.6 0.00 0.00 0.00 41 1006.9
20260503221642 11 324 1.6 1.6 0.00 0.00 0.00 41 1006.6
20260503221139 11 326 1.6 3.2 0.00 0.00 0.00 42 1006.6
20260503220636 11 210 0.0 0.0 0.00 0.00 0.00 40 1006.7
20260503220132 12 267 0.0 0.0 0.00 0.00 0.00 41 1006.8
20260503215630 12 250 1.6 3.2 0.00 0.00 0.00 43 1006.5
20260503215126 12 353 1.6 1.6 0.00 0.00 0.00 43 1006.7
20260503214625 12 5 1.6 1.6 0.00 0.00 0.00 43 1007.0
20260503214121 12 339 4.8 8.0 0.00 0.00 0.00 43 1006.7
20260503213620 12 307 1.6 3.2 0.00 0.00 0.00 42 1006.7
20260503213116 12 290 4.8 4.8 0.00 0.00 0.00 41 1006.9
20260503212614 12 279 6.4 8.0 0.00 0.00 0.00 40 1007.0
20260503212111 12 352 6.4 8.0 0.00 0.00 0.00 39 1007.0
20260503211609 12 305 1.6 1.6 0.00 0.00 0.00 43 1006.9
20260503211103 12 293 4.8 8.0 0.00 0.00 0.00 42 1006.8
20260503210600 12 284 3.2 3.2 0.00 0.00 0.00 43 1006.8
20260503210056 11 267 4.8 4.8 0.00 0.00 0.00 46 1006.9
20260503205553 11 267 3.2 4.8 0.00 0.00 0.00 48 1007.0
20260503205049 11 328 0.0 1.6 0.00 0.00 0.00 46 1007.2
20260503204546 11 335 3.2 4.8 0.00 0.00 0.00 44 1007.3
20260503204043 11 335 3.2 3.2 0.00 0.00 0.00 46 1007.1
20260503203541 11 305 4.8 4.8 0.00 0.00 0.00 44 1007.3
20260503203038 11 18 6.4 8.0 0.00 0.00 0.00 44 1007.2
20260503202536 11 290 3.2 3.2 0.00 0.00 0.00 46 1007.3
20260503202033 11 330 3.2 3.2 0.00 0.00 0.00 45 1007.3
20260503201531 11 354 6.4 8.0 0.00 0.00 0.00 47 1007.5
20260503201028 11 263 4.8 8.0 0.00 0.00 0.00 46 1007.4
20260503200524 10 340 6.4 8.0 0.00 0.00 0.00 46 1007.5
20260503200015 10 241 3.2 3.2 0.00 0.00 0.00 47 1007.7
20260503195513 11 291 6.4 8.0 0.00 0.00 0.00 47 1007.7
20260503195009 11 289 1.6 1.6 0.00 0.00 0.00 49 1007.6
20260503194507 10 255 0.0 1.6 0.00 0.00 0.00 52 1007.5
20260503194006 10 255 1.6 1.6 0.00 0.00 0.00 46 1007.7
20260503193503 10 272 4.8 4.8 0.00 0.00 0.00 50 1008.0
20260503192958 10 276 4.8 4.8 0.00 0.00 0.00 49 1008.0
20260503192454 10 255 1.6 1.6 0.00 0.00 0.00 49 1008.1
20260503191950 10 246 3.2 3.2 0.00 0.00 0.00 50 1008.1
20260503191448 10 281 4.8 4.8 0.00 0.00 0.00 50 1008.1
20260503190943 10 271 3.2 3.2 0.00 0.00 0.00 49 1008.2
20260503190442 10 298 9.7 11.3 0.00 0.00 0.00 46 1008.1
20260503185939 10 312 1.6 3.2 0.00 0.00 0.00 51 1008.2
20260503185435 10 254 4.8 8.0 0.00 0.00 0.00 52 1008.3
20260503184934 10 296 3.2 3.2 0.00 0.00 0.00 47 1008.3
20260503184431 10 263 4.8 4.8 0.00 0.00 0.00 47 1008.2
20260503183927 9 359 4.8 4.8 0.00 0.00 0.00 50 1008.4
20260503183424 9 25 4.8 4.8 0.00 0.00 0.00 50 1008.5
20260503182921 10 347 6.4 8.0 0.00 0.00 0.00 48 1008.2
20260503182420 10 14 12.9 14.5 0.00 0.00 0.00 47 1008.3
20260503181917 10 280 1.6 3.2 0.00 0.00 0.00 49 1008.3
20260503181414 10 351 4.8 8.0 0.00 0.00 0.00 50 1008.5
20260503180910 10 277 1.6 1.6 0.00 0.00 0.00 54 1008.5
20260503180408 9 295 3.2 3.2 0.00 0.00 0.00 50 1008.4
20260503175904 9 332 4.8 4.8 0.00 0.00 0.00 49 1008.6
20260503175403 9 4 9.7 12.9 0.00 0.00 0.00 51 1008.7
20260503174858 9 326 3.2 3.2 0.00 0.00 0.00 50 1008.5
20260503174357 8 1 11.3 11.3 0.00 0.00 0.00 52 1008.5
20260503173857 9 357 9.7 11.3 0.00 0.00 0.00 51 1008.6
20260503173353 9 16 6.4 8.0 0.00 0.00 0.00 52 1008.6
20260503172850 9 14 11.3 16.1 0.00 0.00 0.00 48 1008.8
20260503172348 10 357 9.7 11.3 0.00 0.00 0.00 50 1008.7
20260503171843 9 327 3.2 3.2 0.00 0.00 0.00 48 1008.5
20260503171341 8 8 9.7 11.3 0.00 0.00 0.00 47 1008.7
20260503170838 9 9 9.7 11.3 0.00 0.00 0.00 49 1008.5
20260503170334 8 326 3.2 4.8 0.00 0.00 0.00 49 1008.7
20260503150727 8 28 17.7 22.5 0.00 0.00 0.00 57 1008.7
20260503150223 9 259 1.6 1.6 0.00 0.00 0.00 56 1008.7
20260503140147 8 334 3.2 4.8 0.00 0.00 0.00 67 1009.1
20260503131117 7 347 4.8 8.0 0.00 0.00 0.00 74 1009.3
20260503130614 7 303 4.8 4.8 0.00 0.00 0.00 75 1009.6
20260503130112 7 348 1.6 3.2 0.00 0.00 0.00 80 1009.3